Regional Weather Roundup
Issued by NWS

Home | Current Version | Previous Version | Text Only | Print | Product List | Glossary Off
Versions: 1 2 3 4 5 6 7 8 9 10 11 12 13 14 15 16 17 18 19 20 21 22 23 24 25 26 27

000
ASUS45 KPSR 231510
RWRAZ

ARIZONA HOURLY REGIONAL WEATHER ROUNDUP
NATIONAL WEATHER SERVICE PHOENIX AZ
800 AM MST SAT JUL 23 2016

NOTE: FAIR INDICATES FEW OR NO CLOUDS BELOW 12,000 FEET WITH NO
SIGNIFICANT WEATHER AND/OR OBSTRUCTIONS TO VISIBILITY.

AZZ001>003-036-231600-
NORTHWEST ARIZONA

CITY           SKY/WX    TMP DP  RH WIND       PRES   REMARKS
BULLHEAD CITY  SUNNY     95  45  17 S3        29.81R
KINGMAN        MOSUNNY   91  46  21 SE8       30.04R
$$

AZZ004>008-015-016-018-231600-
NORTH CENTRAL ARIZONA

CITY           SKY/WX    TMP DP  RH WIND       PRES   REMARKS
GRAND CANYON   SUNNY     77  49  37 VRB3      30.32R
WILLIAMS       SUNNY     77  50  38 CALM      30.40R
PRESCOTT       PTSUNNY   73  57  57 CALM      30.20R
FLAGSTAFF      MOSUNNY   74  47  38 CALM      30.34R
PAYSON         SUNNY     82  48  30 CALM      30.23R
PAGE           SUNNY     83  48  29 CALM      30.12R
$$

AZZ009>014-017-231600-
NORTHEAST ARIZONA

CITY           SKY/WX    TMP DP  RH WIND       PRES   REMARKS
WINSLOW        SUNNY     75  53  46 E5        30.20R
SAINT JOHNS    SUNNY     72  51  47 W3        30.25R
SHOW LOW       SUNNY     66  48  52 CALM      30.32S
$$

AZZ023-231600-
GREATER PHOENIX AREA

CITY           SKY/WX    TMP DP  RH WIND       PRES   REMARKS
PHOENIX        PTSUNNY   95  56  26 NW12      29.88R
BUCKEYE        PTSUNNY   93  57  29 SE5       29.91R
GLENDALE       PTSUNNY   97  57  26 SW92      29.91R
LUKE AFB       MOSUNNY   96  57  27 SW15      29.89R
DEER VALLEY    MOSUNNY   93  54  26 SW6       29.92R
SCOTTSDALE     SUNNY     94  54  25 S5        29.93R
MESA-GATEWAY   MOSUNNY  N/A N/A N/A SE8       29.92R
CHANDLER       PTSUNNY   91  63  38 S7        29.90R
$$

AZZ027-028-231600-
SOUTHWEST MARICOPA COUNTY AND PINAL COUNTY

CITY           SKY/WX    TMP DP  RH WIND       PRES   REMARKS
CASA GRANDE    SUNNY     91  61  35 SW9       29.94R
GILA BEND      FAIR      95  59  29 NE3       29.87R
$$

AZZ503-504-507>509-231600-
SOUTHEAST ARIZONA

CITY           SKY/WX    TMP DP  RH WIND       PRES   REMARKS
TUCSON         MOSUNNY   88  57  34 S9        30.03R
DAVIS-MONTHAN  MOSUNNY   86  59  39 S8        30.02R
RYAN FIELD     SUNNY     90  61  37 E7        30.01S
NOGALES        MOSUNNY   79  63  57 S7        30.13R
SIERRA VISTA   SUNNY     81  57  44 VRB1      30.18R
DOUGLAS        SUNNY     79  60  52 S9        30.14R
SAFFORD        SUNNY     82  57  42 W3        30.03R
$$

AZZ020-021-025-026-031-231600-
SOUTHWEST ARIZONA

CITY           SKY/WX    TMP DP  RH WIND       PRES   REMARKS
YUMA           CLOUDY    90  69  50 S12       29.84R
$$

CAZ031-033-041-043-047-048-061-231600-
SOUTHERN CALIFORNIA

CITY           SKY/WX    TMP DP  RH WIND       PRES   REMARKS
DOWNTOWN L.A.  CLOUDY    75  63  66 CALM      29.81S
L.A. AIRPORT   PTSUNNY   73  62  68 VRB3      29.82S
SAN DIEGO      MOSUNNY   68  67  96 SW3       29.84R
BURBANK        SUNNY     78  58  49 CALM      29.84R
ONTARIO        PTSUNNY   78  55  44 CALM      29.86R
RIVERSIDE      MOSUNNY   79  55  43 CALM      29.86R
PALM SPRINGS   SUNNY     91  63  39 E16G25    29.88R
EL CENTRO NAS  SUNNY     93  70  46 S10       29.80R
IMPERIAL       SUNNY     93  75  55 S7        29.78R HX 104
BLYTHE         SUNNY     93  70  46 S20       29.85R
NEEDLES        SUNNY    100  51  19 CALM      29.82S
$$

NVZ020-UTZ003-231600-
SOUTHERN NEVADA-UTAH

CITY           SKY/WX    TMP DP  RH WIND       PRES   REMARKS
LAS VEGAS      MOSUNNY   93  27   9 CALM      29.88R
SALT LAKE CITY MOSUNNY   78  32  18 VRB3      30.15R
$$

NMZ009-TXZ055-231600-
NEW MEXICO-WEST TEXAS

CITY           SKY/WX    TMP DP  RH WIND       PRES   REMARKS
ALBUQUERQUE    MOSUNNY   78  50  37 SE3       30.20S
EL PASO        PTSUNNY   85  50  29 CALM      30.08R
$$


........................KEY........................
SKY/WX - SKY CONDITION/WEATHER
TMP    - TEMPERATURE IN FAHRENHEIT
DP     - DEW POINT IN FAHRENHEIT
RH     - RELATIVE HUMIDITY IN PERCENT
WIND   - DIRECTION AND SPEED IN MILES PER HOUR (MPH)
VRB    - VARIABLE WIND DIRECTION
PRES   - MEAN SEA LEVEL PRESSURE IN INCHES OF MERCURY
         F - FALLING PRESSURE   R - RISING PRESSURE
         S - STEADY PRESSURE
VSB    - VISIBILITY IN MILES
HX     - HEAT INDEX IN FAHRENHEIT
WCI    - WIND CHILL INDEX IN FAHRENHEIT
TC     - TEMPERATURE IN CELSIUS WHICH IS ALSO KNOWN AS
         TEMPERATURE IN CENTIGRADE
AFB    - AIR FORCE BASE
         LUKE AFB IS LUKE AIR FORCE BASE
         DAVIS-MONTHAN IS DAVIS-MONTHAN AIR FORCE BASE
NAS    - NAVAL AIR STATION
         EL CENTRO NAS IS EL CENTRO NAVAL AIR STATION
N/A    - NOT AVAILABLE





USA.gov is the U.S. government's official web portal to all federal, state and local government web resources and services.